Regional Weather Roundup
Issued by NWS

Home | Current Version | Previous Version | Text Only | Print | Product List | Glossary Off
Versions: 1 2 3 4 5 6 7 8 9 10 11 12 13 14 15 16 17 18 19 20 21 22 23 24 25 26 27 28 29 30 31 32 33 34 35 36 37 38 39 40 41 42 43 44 45 46 47 48 49 50

000
ASUS43 KLOT 131200
RWRIL

ILLINOIS REGIONAL WEATHER ROUNDUP
NATIONAL WEATHER SERVICE CHICAGO/ROMEOVILLE IL
700 AM CDT SUN JUL 13 2014

NOTE: "FAIR" INDICATES FEW OR NO CLOUDS BELOW 12,000 FEET WITH NO
SIGNIFICANT WEATHER AND/OR OBSTRUCTIONS TO VISIBILITY.

* THESE STATIONS ARE NOT UNDER NWS QUALITY CONTROL. THEY ALSO MAY NOT
  REPORT WEATHER SUCH AS PRECIPITATION OR FOG.

ILZ001-002-007-009-015-016-024-131300-
NORTHWEST ILLINOIS

CITY           SKY/WX    TMP DP  RH WIND       PRES   REMARKS
MOLINE         CLOUDY    67  64  90 W8        29.97S
6HR MIN TEMP:  66; 6HR MAX TEMP:  72;

STERLING*      CLOUDY    66  63  88 NW7       29.97R
$$

ILZ003-004-008-010-011-017-018-131300-
NORTH CENTRAL ILLINOIS

CITY           SKY/WX    TMP DP  RH WIND       PRES   REMARKS
ROCKFORD       PTSUNNY   65  63  93 W5        29.98R
6HR MIN TEMP:  65; 6HR MAX TEMP:  69;

FREEPORT*      CLOUDY    61  60  96 NW6       29.99R FOG
$$

ILZ005-006-012>014-019>023-131300-
NORTHEAST ILLINOIS

CITY           SKY/WX    TMP DP  RH WIND       PRES   REMARKS
CHICAGO-OHARE  PTSUNNY   68  63  84 W7        29.93R
6HR MIN TEMP:  68; 6HR MAX TEMP:  71; 6HR PCP: TRACE;

CHICAGO-MIDWAY PTSUNNY   72  69  90 W6        29.92R
6HR MIN TEMP:  71; 6HR MAX TEMP:  73; 6HR PCP:  0.05;

AURORA         CLOUDY    68  65  90 W7        29.95R
6HR MIN TEMP:  67; 6HR MAX TEMP:  71; 6HR PCP: TRACE;

LANSING*       CLOUDY    71  67  88 W6        29.93R
WAUKEGAN       PTSUNNY   65  63  93 VRB5      29.92R
6HR MIN TEMP:  65; 6HR MAX TEMP:  70;

DUPAGE AIRPORT CLOUDY    67  64  90 NW9       29.93R
6HR MIN TEMP:  67; 6HR MAX TEMP:  71; 6HR PCP: TRACE;

WHEELING       CLOUDY    69  65  86 W7        29.93R
6HR MIN TEMP:  69; 6HR MAX TEMP:  72;

NORTHERLY ISL    N/A     70  66  87 W6          N/A
$$

LMZ740>746-131300-
SOUTHERN LAKE MICHIGAN

STATION/POSITION SKY/WX   TEMP    WIND        PRES    VSBY  WAVE
                          AIR SEA DIR/SP/G                  HT/PER
                          (F)     (DEG/KT/KT) (MB)    (MI)  (FT/S)
SOUTHERN BUOY              65 64  290/  8/ 10 1011.7R         2/ 4
WAUKEGAN HARBOR            67     260/  3/  5 1014.6S
HARRISON CRIB              69     280/ 12/ 13   N/A
BURNHAM HARBOR             70     250/  5/  8   N/A
CALUMET HARBOR             70     240/  3/  5 1013.7R
MICHIGAN CITY              70     240/ 11/ 13   N/A
$$

ILZ025>027-034>036-040-047-049-050-058-095>099-131300-
WEST-CENTRAL ILLINOIS

CITY           SKY/WX    TMP DP  RH WIND       PRES   REMARKS
QUINCY         LGT RAIN  73  71  93 W3        29.99R
GALESBURG*     CLOUDY    67  67 100 NW3       29.99R
$$

ILZ028>032-037-038-041>044-048-051>054-059>061-131300-
CENTRAL ILLINOIS

CITY           SKY/WX    TMP DP  RH WIND       PRES   REMARKS
DECATUR        LGT RAIN  72  70  93 SW6       30.00S
PEORIA         CLOUDY    73  68  84 N5        29.98R
6HR MIN TEMP:  71; 6HR MAX TEMP:  74; 6HR PCP:  0.33;

SPRINGFIELD    LGT RAIN  73  71  93 CALM      29.98R
6HR MIN TEMP:  73; 6HR MAX TEMP:  82; 6HR PCP:  0.61;

TAYLORVILLE    NOT AVBL
$$

ILZ033-039-045-046-055>057-062-063-131300-
EAST-CENTRAL ILLINOIS

CITY           SKY/WX    TMP DP  RH WIND       PRES   REMARKS
CHAMPAIGN      LGT RAIN  71  69  93 W13       29.99R
MATTOON        CLOUDY    73  70  90 NW8       29.99F
$$

ILZ079-100>102-131300-
SOUTHWEST ILLINOIS

CITY           SKY/WX    TMP DP  RH WIND       PRES   REMARKS
ALTON          PTSUNNY   77  75  94 CALM      30.01S
BELLEVILLE     MOSUNNY   75  74  99 S5        30.01R
CAHOKIA*       MOSUNNY   77  72  84 S3        30.01R
$$

ILZ064>066-069>071-074>076-080>082-084>086-088>090-092>094-131300-
SOUTH-CENTRAL ILLINOIS

CITY           SKY/WX    TMP DP  RH WIND       PRES   REMARKS
CARBONDALE     SUNNY     77  72  84 SW5       30.02S
6HR MIN TEMP:  77; 6HR MAX TEMP:  81;

MT. VERNON     MOSUNNY   75  70  83 SW3       30.02S
$$

ILZ067-068-072-073-078-083-087-091-131300-
SOUTHEAST ILLINOIS

CITY           SKY/WX    TMP DP  RH WIND       PRES   REMARKS
FLORA*         PTSUNNY   77  72  85 W6        30.02R
HARRISBURG*    SUNNY     74  74  99 CALM      30.03F
$$

ABBREVIATIONS USED IN REMARKS
   TC - TEMPERATURE IN CELSIUS
  WCI - WIND CHILL INDEX
   HX - HEAT INDEX
  VSB - VISIBILITY
$$



USA.gov is the U.S. government's official web portal to all federal, state and local government web resources and services.